Regional Weather Roundup
Issued by NWS Newport/Morehead, NC

Home | Current Version | Previous Version | Text Only | Print | Product List | Glossary On
Versions: 1 2 3 4 5 6 7 8 9 10 11 12 13 14 15 16 17 18 19 20 21 22 23 24 25 26 27 28 29 30 31 32 33 34 35 36 37 38 39 40 41 42 43 44 45 46 47 48 49 50
000
ASUS42 KMHX 241313
RWRMHX
WEATHER ROUNDUP FOR EASTERN NORTH CAROLINA
NATIONAL WEATHER SERVICE NEWPORT/MOREHEAD CITY NC
800 AM EST FRI FEB 24 2017

NOTE: "FAIR" INDICATES FEW OR NO CLOUDS BELOW 12,000 FEET
WITH NO SIGNIFICANT WEATHER AND/OR OBSTRUCTIONS TO VISIBILITY

NCZ015>017-031-032-045>047-102-103-241400-
NORTH COAST

CITY           SKY/WX    TMP DP  RH WIND       PRES   REMARKS
EDENTON        SUNNY     58  56  95 CALM      29.96R
ELIZABETH CITY MOSUNNY   60  58  92 SE10      29.96R
KITTY HAWK     NOT AVBL
MANTEO         CLOUDY    62  62 100 E3        29.95S

$$

NCZ045>047-081-094-103-104-241400-
CENTRAL COAST

CITY           SKY/WX    TMP DP  RH WIND       PRES   REMARKS
FRISCO         MOSUNNY   63  59  87 E5        29.94R FOG

$$

NCZ095-097-098-100-101-241400-
SOUTHERN COAST

CITY           SKY/WX    TMP DP  RH WIND       PRES   REMARKS
BEAUFORT       SUNNY     63  61  93 NE6       29.92R
CEDAR ISLAND   NOT AVBL
JACKSONVILLE   MOSUNNY   63  60  90 NE3       29.92R
PINEY ISLAND   PTSUNNY  N/A N/A N/A NE8       29.93R
WILMINGTON     PTSUNNY   58  58 100 NE5       29.91R


$$

NCZ011>013-027>030-043-044-078>080-089-090>093-098-241400-
COASTAL PLAIN

CITY           SKY/WX    TMP DP  RH WIND       PRES   REMARKS
AHOSKIE          N/A     49  49  97 CALM      29.95S
CLINTON        MOSUNNY   55  55 100 CALM      29.93R
ELIZABETHTOWN  MOSUNNY   55  55 100 CALM      29.92R
GOLDSBORO      SUNNY     56  56 100 CALM      29.91S
GREENVILLE     SUNNY     52  52 100 CALM      29.95S FOG
HAVELOCK       MOSUNNY   60  58  92 NE5       29.93R
KENANSVILLE    MOSUNNY   54  54 100 CALM      29.93S FOG
KINSTON        SUNNY     55  55 100 CALM      29.94S
NEW BERN       SUNNY     57  57 100 CALM      29.94R
RICHLANDS      CLOUDY    58  58 100 N5        29.92S
ROCKY MOUNT    FOG       53  53 100 CALM      29.95R VSB 1/2
WASHINGTON     MOSUNNY   58  57  96 CALM      29.94S
WHITEVILLE     MOSUNNY   56  56  97 CALM      29.90S

$$

AMZ130-135-150-152-154-156-158-170-250-252-270-ANZ085-086-088-633-658-670-241400-
MARINE OBSERVATIONS

STATION/POSITION TIME  TEMP    WIND        PRES    WAVE   SWELL
                       AIR SEA DIR/SP/G            HT/PER HT/PER
                 (UTC) (F)     (DEG/KT/KT) (MB)    (FT/S) (FT/S)
CHESAPEAKE LIGHT NOT AVBL
64 E VA BEACH    1250   62 54  120/  4/  6 1014.7    5/12   5/12
DUCK             1248   58 49  130/  6/  7 1013.9
2 E DUCK         1300      51                N/A     4/12   2/12
OREGON INLET     1242   60 56   40/  6/  8 1014.1
13E OREGON INLT  NOT AVBL
HATTERAS CG      1248   63 62   50/  4/  6 1013.2
DIAMOND BUOY     1250   66 73  110/ 17/ 19 1013.7    8/10   5/10
CAPE LOOKOUT     1200   61      40/  7/  7 1012.3
BEAUFORT LAB     1248   62 62   30/  5/  6 1012.1
30 SE NEW RVR IN 1208   64      40/ 12/ 17 1012.2
30 SE NEW RVR IN 1243      70                N/A     8/ 9   3/11
27 SE WRIGHTSVLE 1208   66 66   60/ 10/ 14 1011.1
5 SE WRIGHTSVLE  1208   59 58   30/  6/ 12 1012.1
225 S CAPE HAT   1250   68 70   60/ 25/ 29 1007.1   13/ 9
41 SE CHARLESTON 1150   69 70   30/  8/ 10 1010.1   10/11  10/11

$$



USA.gov is the U.S. government's official web portal to all federal, state and local government web resources and services.